Flag for U.S.A. Weather past 2 weeks in Bridgewater, Massachusetts, U.S.A.

Now
36 °F

Clear.


Feels Like: 36 °F
Forecast: 39 / 72 °F
Wind: No wind

Location: Taunton Municipal Airport

Current Time: Sep 19, 2014 at 10:44:33 PM

Latest Report: Sep 19, 2014 at 9:52 PM


Visibility: 7 mi

Pressure: 30.43 "Hg

Humidity: 89%

Dew point: 33 °F

Location of BridgewaterLocation

Historic Weather in Bridgewater — Graph

°F

Bridgewater temperature yesterday

Maximum temperature yesterday: 75 °F (at 12:52 PM)
Minimum temperature yesterday: 38 °F (at 5:52 AM)
Average temperature yesterday: 58 °F

Past Weeks' High & Low Weather Summary

 TemperatureHumidityPressure
High88 °F (Sep 5, 1:52 PM)100% (Sep 11, 1:52 AM)30.43 "Hg (Sep 11, 1:52 AM)
Low37 °F (Sep 19, 8:52 PM)31% (Sep 7, 1:52 PM)29.77 "Hg (Sep 6, 5:52 PM)
Average62 °F76%30.10 "Hg
* Reported Sep 4 8:52 PM — Sep 19 8:52 PM, Bridgewater, Weather by CustomWeather, © 2014

Note: Actual official high and low records may vary slightly from our data, if they occured in-between our weather recording intervals... More about our weather records

Advertising

Bridgewater weather history for previous 24 hours

 ConditionsComfort  
Time TempWeatherWind HumidityBarometerVisibility
8:52 PM
Sep 19
37 °FClear.No wind89%30.43 "Hg10 mi
7:52 PM40 °FClear.No wind89%30.43 "Hg10 mi
6:52 PM50 °FSunny.3 mph61%30.40 "Hg10 mi
5:52 PM55 °FSunny.5 mph49%30.40 "Hg10 mi
4:52 PM57 °FSunny.8 mph44%30.38 "Hg10 mi
3:52 PM58 °FSunny.6 mph41%30.38 "Hg10 mi
2:52 PM59 °FPassing clouds.6 mph42%30.39 "Hg10 mi
1:52 PM60 °FSunny.5 mph39%30.38 "Hg10 mi
12:52 PM59 °FSunny.6 mph41%30.38 "Hg10 mi
11:52 AM58 °FSunny.8 mph43%30.37 "Hg10 mi
10:52 AM57 °FPassing clouds.12 mph46%30.37 "Hg10 mi
9:52 AM56 °FPartly sunny.7 mph49%30.36 "Hg10 mi
8:52 AM54 °FSunny.10 mph53%30.34 "Hg10 mi
7:52 AM51 °FSunny.6 mph66%30.31 "Hg10 mi
6:52 AM43 °FClear.No wind86%30.29 "Hg10 mi
5:52 AM48 °FPassing clouds.3 mph77%30.25 "Hg10 mi
4:52 AM50 °FPassing clouds.3 mph74%30.22 "Hg10 mi
3:52 AM51 °FPassing clouds.3 mph71%30.20 "Hg10 mi
2:52 AM53 °FPassing clouds.3 mph66%30.18 "Hg10 mi
1:52 AM55 °FPassing clouds.6 mph59%30.16 "Hg10 mi
12:52 AM58 °FPassing clouds.8 mph60%30.14 "Hg10 mi
11:52 PM
Sep 18
61 °FOvercast.6 mph62%30.11 "Hg10 mi
10:52 PM63 °FMostly cloudy.6 mph65%30.09 "Hg10 mi
Weather by CustomWeather, © 2014

See weather overviewHow to use our weather pages